| time (UTC) | temp C | wind direction | speed KPH | gust KPH | rain 1hr cm | rain 24hr cm | rain mn cm | humidity % | barometer mb |
| 20260831010105 | 18 | 111 | 4.8 | 16.1 | 0.00 | 0.00 | 0.00 | 89 | 1012.8 |
| 20260831004554 | 18 | 0 | 3.2 | 17.7 | 0.00 | 0.00 | 0.00 | 89 | 1013.0 |
| 20260831003101 | 18 | 119 | 3.2 | 17.7 | 0.00 | 0.00 | 0.00 | 89 | 1013.0 |
| 20260831001608 | 18 | 90 | 6.4 | 20.9 | 0.00 | 0.00 | 0.00 | 88 | 1013.6 |
| 20260831000056 | 18 | 165 | 8.0 | 19.3 | 0.00 | 0.00 | 0.00 | 88 | 1013.9 |
| 20260830234606 | 18 | 62 | 4.8 | 17.7 | 0.00 | 0.00 | 0.00 | 87 | 1014.1 |
| 20260830233106 | 18 | 78 | 4.8 | 16.1 | 0.00 | 0.00 | 0.00 | 86 | 1014.0 |
| 20260830231556 | 19 | 111 | 8.0 | 19.3 | 0.00 | 0.00 | 0.00 | 85 | 1014.3 |
| 20260830230128 | 19 | 74 | 6.4 | 16.1 | 0.00 | 0.00 | 0.00 | 85 | 1014.2 |
| 20260830224606 | 19 | 101 | 8.0 | 20.9 | 0.00 | 0.00 | 0.00 | 84 | 1014.1 |
| 20260830223055 | 20 | 113 | 8.0 | 19.3 | 0.00 | 0.00 | 0.00 | 83 | 1014.2 |
| 20260830221553 | 20 | 123 | 6.4 | 14.5 | 0.00 | 0.00 | 0.00 | 81 | 1014.1 |
| 20260830220107 | 20 | 142 | 6.4 | 16.1 | 0.00 | 0.00 | 0.00 | 81 | 1014.5 |
| 20260830214556 | 20 | 123 | 9.7 | 20.9 | 0.00 | 0.00 | 0.00 | 80 | 1014.4 |
| 20260830213100 | 21 | 62 | 6.4 | 17.7 | 0.00 | 0.00 | 0.00 | 79 | 1014.5 |
| 20260830211605 | 21 | 200 | 6.4 | 22.5 | 0.00 | 0.00 | 0.00 | 80 | 1014.7 |
| 20260830210109 | 21 | 198 | 3.2 | 20.9 | 0.00 | 0.00 | 0.00 | 81 | 1014.7 |
| 20260830204557 | 20 | 94 | 9.7 | 19.3 | 0.00 | 0.00 | 0.00 | 80 | 1014.7 |
| 20260830203100 | 21 | 152 | 9.7 | 24.1 | 0.00 | 0.00 | 0.00 | 80 | 1014.7 |
| 20260830201556 | 21 | 162 | 6.4 | 20.9 | 0.00 | 0.00 | 0.00 | 80 | 1014.8 |
| 20260830200106 | 20 | 89 | 6.4 | 20.9 | 0.00 | 0.00 | 0.00 | 81 | 1014.6 |
| 20260830194612 | 21 | 111 | 4.8 | 16.1 | 0.00 | 0.00 | 0.00 | 82 | 1014.9 |
| 20260830193100 | 20 | 186 | 8.0 | 22.5 | 0.00 | 0.00 | 0.00 | 81 | 1014.5 |
| 20260830191601 | 20 | 190 | 9.7 | 20.9 | 0.00 | 0.00 | 0.00 | 81 | 1014.7 |
| 20260830190057 | 21 | 169 | 8.0 | 19.3 | 0.00 | 0.00 | 0.00 | 81 | 1014.6 |
| 20260830184559 | 20 | 72 | 6.4 | 17.7 | 0.00 | 0.00 | 0.00 | 82 | 1014.7 |
| 20260830183057 | 20 | 108 | 8.0 | 17.7 | 0.00 | 0.00 | 0.00 | 83 | 1014.5 |
| 20260830181555 | 20 | 73 | 4.8 | 14.5 | 0.00 | 0.00 | 0.00 | 84 | 1014.5 |
| 20260830180108 | 19 | 53 | 3.2 | 17.7 | 0.00 | 0.00 | 0.00 | 86 | 1014.3 |
| 20260830174607 | 19 | 104 | 8.0 | 19.3 | 0.00 | 0.00 | 0.00 | 87 | 1014.6 |
| 20260830173107 | 19 | 15 | 8.0 | 19.3 | 0.00 | 0.00 | 0.00 | 86 | 1014.9 |
| 20260830171606 | 19 | 148 | 8.0 | 16.1 | 0.00 | 0.00 | 0.00 | 86 | 1015.0 |
| 20260830170056 | 19 | 140 | 6.4 | 17.7 | 0.00 | 0.00 | 0.00 | 86 | 1015.1 |
| 20260830164604 | 19 | 82 | 8.0 | 17.7 | 0.00 | 0.00 | 0.00 | 86 | 1015.1 |
| 20260830163100 | 20 | 140 | 4.8 | 14.5 | 0.00 | 0.00 | 0.00 | 86 | 1015.1 |
| 20260830161554 | 19 | 72 | 4.8 | 11.3 | 0.00 | 0.00 | 0.00 | 88 | 1015.3 |
| 20260830160115 | 19 | 188 | 0.0 | 14.5 | 0.00 | 0.00 | 0.00 | 88 | 1015.2 |
| 20260830154557 | 18 | 133 | 1.6 | 12.9 | 0.00 | 0.00 | 0.00 | 89 | 1015.2 |
| 20260830153057 | 18 | 162 | 4.8 | 14.5 | 0.00 | 0.00 | 0.00 | 89 | 1014.9 |
| 20260830151553 | 18 | 99 | 3.2 | 11.3 | 0.00 | 0.00 | 0.00 | 90 | 1014.8 |
| 20260830150119 | 18 | 89 | 3.2 | 12.9 | 0.00 | 0.00 | 0.00 | 91 | 1014.4 |
| 20260830144606 | 17 | 88 | 1.6 | 14.5 | 0.00 | 0.00 | 0.00 | 91 | 1014.4 |
| 20260830143057 | 17 | 0 | 0.0 | 9.7 | 0.00 | 0.00 | 0.00 | 91 | 1014.5 |
| 20260830141554 | 17 | 82 | 1.6 | 16.1 | 0.00 | 0.00 | 0.00 | 92 | 1014.5 |
| 20260830140105 | 17 | 73 | 0.0 | 6.4 | 0.00 | 0.00 | 0.00 | 93 | 1014.9 |
| 20260830134605 | 17 | 78 | 1.6 | 8.0 | 0.00 | 0.00 | 0.00 | 94 | 1015.1 |
| 20260830133058 | 16 | 140 | 3.2 | 12.9 | 0.00 | 0.00 | 0.00 | 94 | 1015.0 |
| 20260830131607 | 16 | 147 | 3.2 | 11.3 | 0.00 | 0.00 | 0.00 | 94 | 1015.1 |
| 20260830130104 | 16 | 119 | 1.6 | 14.5 | 0.00 | 0.00 | 0.00 | 95 | 1015.1 |
| 20260830124602 | 16 | 134 | 0.0 | 6.4 | 0.00 | 0.00 | 0.00 | 96 | 1015.1 |
| 20260830123056 | 16 | 0 | 1.6 | 6.4 | 0.00 | 0.00 | 0.00 | 95 | 1015.0 |
| 20260830121602 | 16 | 0 | 1.6 | 8.0 | 0.00 | 0.00 | 0.00 | 95 | 1014.6 |
| 20260830120106 | 16 | 35 | 0.0 | 8.0 | 0.00 | 0.00 | 0.00 | 95 | 1014.3 |
| 20260830114613 | 16 | 0 | 1.6 | 14.5 | 0.00 | 0.00 | 0.00 | 96 | 1014.3 |
| 20260830113058 | 16 | 0 | 1.6 | 8.0 | 0.00 | 0.00 | 0.00 | 95 | 1014.4 |
| 20260830111606 | 16 | 58 | 0.0 | 4.8 | 0.00 | 0.00 | 0.00 | 96 | 1014.6 |
| 20260830110105 | 16 | 0 | 0.0 | 4.8 | 0.00 | 0.00 | 0.00 | 96 | 1014.6 |
| 20260830104601 | 16 | 0 | 0.0 | 6.4 | 0.00 | 0.00 | 0.00 | 96 | 1014.5 |
| 20260830103057 | 16 | 0 | 0.0 | 6.4 | 0.00 | 0.00 | 0.00 | 96 | 1014.3 |
| 20260830101555 | 16 | 59 | 0.0 | 3.2 | 0.00 | 0.00 | 0.00 | 96 | 1014.2 |
| 20260830100054 | 16 | 0 | 1.6 | 6.4 | 0.00 | 0.00 | 0.00 | 96 | 1014.1 |
| 20260830094558 | 16 | 128 | 0.0 | 6.4 | 0.00 | 0.00 | 0.00 | 96 | 1014.3 |
| 20260830093107 | 16 | 127 | 0.0 | 6.4 | 0.00 | 0.00 | 0.00 | 96 | 1014.3 |
| 20260830091554 | 16 | 86 | 0.0 | 3.2 | 0.00 | 0.00 | 0.00 | 96 | 1014.1 |
| 20260830090111 | 16 | 0 | 0.0 | 9.7 | 0.00 | 0.00 | 0.00 | 96 | 1013.7 |
| 20260830084552 | 16 | 99 | 1.6 | 6.4 | 0.00 | 0.00 | 0.00 | 96 | 1013.8 |
| 20260830083101 | 16 | 161 | 0.0 | 0.0 | 0.00 | 0.00 | 0.00 | 96 | 1014.1 |
| 20260830081556 | 16 | 0 | 0.0 | 6.4 | 0.00 | 0.00 | 0.00 | 96 | 1014.1 |
| 20260830080054 | 16 | 0 | 0.0 | 3.2 | 0.00 | 0.00 | 0.00 | 96 | 1013.9 |
| 20260830074605 | 16 | 161 | 0.0 | 8.0 | 0.00 | 0.00 | 0.00 | 96 | 1013.8 |
| 20260830073058 | 16 | 0 | 0.0 | 3.2 | 0.00 | 0.00 | 0.00 | 95 | 1013.9 |
| 20260830071557 | 17 | 0 | 0.0 | 4.8 | 0.00 | 0.00 | 0.00 | 95 | 1013.8 |
| 20260830070053 | 17 | 0 | 0.0 | 4.8 | 0.00 | 0.00 | 0.00 | 94 | 1013.7 |
| 20260830064555 | 17 | 0 | 0.0 | 4.8 | 0.00 | 0.00 | 0.00 | 94 | 1014.1 |
| 20260830063109 | 17 | 0 | 0.0 | 6.4 | 0.00 | 0.00 | 0.00 | 95 | 1014.2 |
| 20260830061612 | 17 | 0 | 0.0 | 3.2 | 0.00 | 0.00 | 0.00 | 95 | 1014.3 |
| 20260830060107 | 17 | 0 | 0.0 | 1.6 | 0.00 | 0.00 | 0.00 | 95 | 1014.2 |
| 20260830054601 | 17 | 105 | 0.0 | 3.2 | 0.00 | 0.00 | 0.00 | 96 | 1014.8 |
| 20260830053053 | 17 | 0 | 0.0 | 4.8 | 0.00 | 0.00 | 0.00 | 96 | 1014.7 |
| 20260830051611 | 17 | 0 | 0.0 | 0.0 | 0.00 | 0.00 | 0.00 | 96 | 1014.9 |
| 20260830050055 | 16 | 0 | 0.0 | 0.0 | 0.00 | 0.00 | 0.00 | 96 | 1015.0 |
| 20260830044602 | 16 | 0 | 0.0 | 0.0 | 0.00 | 0.00 | 0.00 | 96 | 1015.1 |
| 20260830043100 | 16 | 0 | 0.0 | 0.0 | 0.00 | 0.00 | 0.00 | 95 | 1015.0 |
| 20260830041635 | 16 | 0 | 0.0 | 0.0 | 0.00 | 0.00 | 0.00 | 95 | 1015.0 |
| 20260830040111 | 16 | 0 | 0.0 | 0.0 | 0.00 | 0.00 | 0.00 | 95 | 1014.9 |
| 20260830034621 | 16 | 0 | 0.0 | 0.0 | 0.00 | 0.00 | 0.00 | 94 | 1014.7 |
| 20260830033055 | 16 | 0 | 0.0 | 0.0 | 0.00 | 0.00 | 0.00 | 93 | 1014.6 |
| 20260830031606 | 17 | 0 | 0.0 | 0.0 | 0.00 | 0.00 | 0.00 | 93 | 1014.4 |
| 20260830030105 | 17 | 0 | 0.0 | 0.0 | 0.00 | 0.00 | 0.00 | 92 | 1014.4 |
| 20260830024559 | 17 | 0 | 0.0 | 0.0 | 0.00 | 0.00 | 0.00 | 92 | 1014.3 |
| 20260830023106 | 18 | 0 | 0.0 | 0.0 | 0.00 | 0.00 | 0.00 | 90 | 1014.1 |
| 20260830021611 | 18 | 0 | 0.0 | 0.0 | 0.00 | 0.00 | 0.00 | 90 | 1014.1 |
| 20260830020109 | 18 | 0 | 0.0 | 0.0 | 0.00 | 0.00 | 0.00 | 89 | 1013.9 |
| 20260830014610 | 19 | 193 | 0.0 | 4.8 | 0.00 | 0.00 | 0.00 | 88 | 1013.7 |
| 20260830013110 | 19 | 0 | 1.6 | 6.4 | 0.00 | 0.00 | 0.00 | 87 | 1013.6 |
| 20260830011600 | 20 | 0 | 0.0 | 3.2 | 0.00 | 0.00 | 0.00 | 86 | 1013.6 |